This is the latest recevied weather packets stored in our database for station/object JS1SZZ-13. If no packets are shown the sender has not sent any weather packets the latest 10 day(s).
| Time | Temp. | Humidity | Pressure | Rain* | Wind** | Luminosity | Snow |
|---|---|---|---|---|---|---|---|
| 1787895759 | 26.67° C | 60% | 1008.4 hPa | 0 mm | - | - | - |
| 1787894859 | 27.22° C | 62% | 1008.5 hPa | 0 mm | - | - | - |
| 1787893958 | 27.78° C | 61% | 1008.6 hPa | 0 mm | - | - | - |
| 1787893060 | 28.33° C | 61% | 1008.3 hPa | 0 mm | - | - | - |
| 1787892159 | 28.89° C | 53% | 1008.3 hPa | 0 mm | - | - | - |
| 1787891259 | 31.11° C | 55% | 1008.4 hPa | 0 mm | - | - | - |
| 1787890358 | 31.11° C | 50% | 1008.1 hPa | 0 mm | - | - | - |
| 1787889458 | 31.11° C | 56% | 1008.1 hPa | 0 mm | - | - | - |
| 1787888558 | 30.56° C | 56% | 1008.3 hPa | 0 mm | - | - | - |
| 1787887659 | 30° C | 58% | 1007.9 hPa | 0 mm | - | - | - |
| 1787886759 | 30.56° C | 52% | 1008.1 hPa | 0 mm | - | - | - |
| 1787885858 | 30° C | 54% | 1008.3 hPa | 0 mm | - | - | - |
| 1787884959 | 29.44° C | 64% | 1007.9 hPa | 0 mm | - | - | - |
| 1787884059 | 29.44° C | 61% | 1008.4 hPa | 0 mm | - | - | - |
| 1787883159 | 29.44° C | 58% | 1008.5 hPa | 0 mm | - | - | - |
| 1787882259 | 29.44° C | 62% | 1008.4 hPa | 0 mm | - | - | - |
| 1787881358 | 28.89° C | 71% | 1008.7 hPa | 0 mm | - | - | - |
| 1787880458 | 27.78° C | 69% | 1008.7 hPa | 0 mm | - | - | - |
| 1787879558 | 27.78° C | 70% | 1008.8 hPa | 0 mm | - | - | - |
| 1787878660 | 27.78° C | 63% | 1008.8 hPa | 0 mm | - | - | - |
| 1787877759 | 27.78° C | 69% | 1008.9 hPa | 0 mm | - | - | - |
| 1787876859 | 26.67° C | 71% | 1009 hPa | 0 mm | - | - | - |
| 1787875958 | 26.11° C | 73% | 1008.8 hPa | 0 mm | - | - | - |
| 1787875059 | 25.56° C | 74% | 1009.3 hPa | 0 mm | - | - | - |
| 1787874158 | 24.44° C | 80% | 1009.2 hPa | 0 mm | - | - | - |
* Rain latest hour (hover to see other rain measurements)
** Current wind speed in m/s (hover to see current wind gust speed)